Overview Statistics Trail Chart Weather Telemetry Raw packets
 

This is the latest recevied weather packets stored in our database for station/object DG1ROH. If no packets are shown the sender has not sent any weather packets the latest 10 day(s).

<< 152 153 154 155 156 157 158 >>
Time Temp. Humidity Pressure Rain* Wind** Luminosity Snow
1777377365 14.44° C 34% 1025.4 hPa 0 mm - 691 W/m² -
1777377246 14.44° C 32% 1025.2 hPa 0 mm - 714 W/m² -
1777377125 15° C 31% 1025.3 hPa 0 mm - 705 W/m² -
1777377004 15° C 33% 1025.3 hPa 0 mm - 707 W/m² -
1777376885 15° C 35% 1025.4 hPa 0 mm - 726 W/m² -
1777376765 15° C 34% 1025.3 hPa 0 mm - 729 W/m² -
1777376647 15° C 33% 1025.4 hPa 0 mm - 715 W/m² -
1777376525 15.56° C 33% 1025.3 hPa 0 mm - 726 W/m² -
1777376405 15° C 32% 1025.4 hPa 0 mm - 742 W/m² -
1777376286 15° C 33% 1025.5 hPa 0 mm - 729 W/m² -
1777376165 15.56° C 32% 1025.5 hPa 0 mm - 680 W/m² -
1777376046 15.56° C 33% 1025.4 hPa 0 mm - 684 W/m² -
1777375925 15° C 35% 1025.4 hPa 0 mm - 707 W/m² -
1777375805 14.44° C 35% 1025.4 hPa 0 mm - 735 W/m² -
1777375685 14.44° C 33% 1025.5 hPa 0 mm - 735 W/m² -
1777375565 13.89° C 34% 1025.6 hPa 0 mm - 747 W/m² -
1777375447 13.89° C 36% 1025.6 hPa 0 mm - 742 W/m² -
1777375325 13.33° C 31% 1025.5 hPa 0 mm - 747 W/m² -
1777375201 13.89° C 31% 1025.6 hPa 0 mm - 745 W/m² -
1777375081 14.44° C 31% 1025.5 hPa 0 mm - 745 W/m² -
1777374959 14.44° C 32% 1025.6 hPa 0 mm - 745 W/m² -
1777374839 14.44° C 33% 1025.5 hPa 0 mm - 744 W/m² -
1777374718 15° C 35% 1025.7 hPa 0 mm - 740 W/m² -
1777374599 15° C 35% 1025.5 hPa 0 mm - 742 W/m² -
1777374479 14.44° C 32% 1025.6 hPa 0 mm - 733 W/m² -

* Rain latest hour (hover to see other rain measurements)
** Current wind speed in m/s (hover to see current wind gust speed)